UAL24G KJFK-KDTW

Flight info

Callsign UAL24G
Flight time N/A
Altitude 38000
Route GAYEL J95 CFB TRAAD JACCI FERRL2
Aircraft B77W/H-SDE1E2E3FGHIJ2J3J4J5M1RWXY/LB1D1

Departure

Time 2026-04-30 22:06
Airport John F. Kennedy International Airport (KJFK)

Arrival

Time N/A
Airport Detroit Metropolitan Wayne County Airport (KDTW)
Time Latitude Longitude Altitude Speed Heading
2026-04-30 21:40 40.64396 -73.77903 25 ft 0 kts 239°
2026-04-30 21:58 40.64397 -73.77901 25 ft 1 kts 239°
2026-04-30 21:58 40.64407 -73.77881 31 ft 3 kts 230°
2026-04-30 21:59 40.64421 -73.77863 31 ft 3 kts 211°
2026-04-30 21:59 40.64437 -73.77854 31 ft 3 kts 174°
2026-04-30 21:59 40.64450 -73.77859 31 ft 2 kts 116°
2026-04-30 22:00 40.64451 -73.77863 25 ft 0 kts 110°
2026-04-30 22:02 40.64451 -73.77861 25 ft 1 kts 110°
2026-04-30 22:02 40.64448 -73.77851 24 ft 2 kts 110°
2026-04-30 22:02 40.64443 -73.77834 19 ft 2 kts 113°
2026-04-30 22:02 40.64433 -73.77812 22 ft 3 kts 120°
2026-04-30 22:03 40.64421 -73.77784 31 ft 4 kts 120°
2026-04-30 22:03 40.64406 -73.77750 30 ft 5 kts 120°
2026-04-30 22:03 40.64387 -73.77712 31 ft 5 kts 128°
2026-04-30 22:03 40.64357 -73.77683 30 ft 6 kts 151°
2026-04-30 22:04 40.64321 -73.77656 27 ft 6 kts 150°
2026-04-30 22:04 40.64281 -73.77627 28 ft 7 kts 150°
2026-04-30 22:04 40.64183 -73.77554 28 ft 11 kts 150°
2026-04-30 22:05 40.64111 -73.77494 28 ft 14 kts 141°
2026-04-30 22:05 40.64043 -73.77392 27 ft 16 kts 125°
2026-04-30 22:05 40.63968 -73.77267 31 ft 19 kts 141°
2026-04-30 22:05 40.63845 -73.77278 32 ft 20 kts 211°
2026-04-30 22:06 40.63713 -73.77383 29 ft 34 kts 211°
2026-04-30 22:06 40.61957 -73.78766 482 ft 228 kts 211°
2026-04-30 22:06 40.60557 -73.79856 2275 ft 238 kts 212°
2026-04-30 22:07 40.59104 -73.80969 4189 ft 239 kts 213°
2026-04-30 22:07 40.57859 -73.82323 5404 ft 236 kts 239°
2026-04-30 22:07 40.57407 -73.84429 6117 ft 250 kts 276°
2026-04-30 22:07 40.58063 -73.86555 7099 ft 259 kts 307°
2026-04-30 22:08 40.59399 -73.88192 8125 ft 267 kts 319°
2026-04-30 22:08 40.60997 -73.89511 9149 ft 276 kts 330°
2026-04-30 22:08 40.62765 -73.90569 10150 ft 282 kts 333°
2026-04-30 22:08 40.64621 -73.91592 10859 ft 301 kts 334°
2026-04-30 22:09 40.66660 -73.92711 11120 ft 333 kts 334°
2026-04-30 22:09 40.68887 -73.93942 11560 ft 356 kts 334°
2026-04-30 22:09 40.71204 -73.95232 12464 ft 366 kts 333°
2026-04-30 22:09 40.73565 -73.96560 13504 ft 372 kts 333°
2026-04-30 22:10 40.75959 -73.97918 14481 ft 377 kts 332°
2026-04-30 22:10 40.78383 -73.99304 15418 ft 382 kts 331°
2026-04-30 22:10 40.80805 -74.00699 16346 ft 388 kts 330°
2026-04-30 22:10 40.83342 -74.02168 17230 ft 396 kts 330°
2026-04-30 22:11 40.88427 -74.05117 19033 ft 407 kts 329°
2026-04-30 22:11 40.91074 -74.06654 19887 ft 412 kts 329°
2026-04-30 22:11 40.93715 -74.08188 20712 ft 418 kts 329°
2026-04-30 22:12 40.96361 -74.09726 21508 ft 423 kts 329°
2026-04-30 22:12 40.99076 -74.11306 22302 ft 429 kts 329°
2026-04-30 22:12 41.01826 -74.12908 23066 ft 435 kts 329°
2026-04-30 22:12 41.04612 -74.14533 23756 ft 440 kts 329°
2026-04-30 22:13 41.07428 -74.16175 24401 ft 444 kts 329°
2026-04-30 22:13 41.10272 -74.17834 25077 ft 448 kts 329°
2026-04-30 22:13 41.13139 -74.19510 25694 ft 453 kts 329°
2026-04-30 22:13 41.16041 -74.21207 26282 ft 458 kts 329°
2026-04-30 22:14 41.18966 -74.22921 26901 ft 462 kts 329°
2026-04-30 22:14 41.21918 -74.24651 27500 ft 466 kts 329°
2026-04-30 22:14 41.24899 -74.26401 28073 ft 470 kts 329°
2026-04-30 22:14 41.27910 -74.28169 28624 ft 475 kts 329°
2026-04-30 22:15 41.30943 -74.29951 29161 ft 478 kts 329°
2026-04-30 22:15 41.33743 -74.31599 29701 ft 481 kts 329°
2026-04-30 22:15 41.36789 -74.33445 30137 ft 479 kts 325°
2026-04-30 22:15 41.38671 -74.34955 30309 ft 475 kts 317°
2026-04-30 22:16 41.40846 -74.37429 30728 ft 466 kts 308°
2026-04-30 22:16 41.42926 -74.40677 31254 ft 457 kts 299°
2026-04-30 22:17 41.47362 -74.51135 32533 ft 454 kts 294°
2026-04-30 22:17 41.48928 -74.54796 32981 ft 455 kts 294°
2026-04-30 22:17 41.52085 -74.62117 33881 ft 455 kts 294°
2026-04-30 22:18 41.53656 -74.65782 34248 ft 456 kts 294°
2026-04-30 22:18 41.56804 -74.73143 35017 ft 456 kts 294°
2026-04-30 22:19 41.59942 -74.80496 35711 ft 456 kts 294°
2026-04-30 22:19 41.61516 -74.84182 36046 ft 457 kts 294°
2026-04-30 22:19 41.64673 -74.91559 36712 ft 457 kts 295°
2026-04-30 22:20 41.66248 -74.95248 37053 ft 457 kts 295°
2026-04-30 22:20 41.69395 -75.02632 37662 ft 457 kts 295°
2026-04-30 22:20 41.70971 -75.06341 37815 ft 461 kts 295°
2026-04-30 22:21 41.74151 -75.13839 37844 ft 462 kts 295°
2026-04-30 22:21 41.77296 -75.21262 37848 ft 455 kts 295°
2026-04-30 22:22 41.80409 -75.28637 37863 ft 454 kts 295°
2026-04-30 22:22 41.83514 -75.36013 37869 ft 454 kts 295°
2026-04-30 22:23 41.86613 -75.43395 37886 ft 454 kts 295°
2026-04-30 22:23 41.89713 -75.50795 37874 ft 456 kts 295°
2026-04-30 22:24 41.92800 -75.58178 37869 ft 456 kts 295°
2026-04-30 22:24 41.95905 -75.65627 37877 ft 457 kts 295°
2026-04-30 22:25 41.99005 -75.73088 37876 ft 458 kts 295°
2026-04-30 22:25 42.02105 -75.80568 37895 ft 458 kts 295°
2026-04-30 22:26 42.06749 -75.91809 37878 ft 458 kts 295°
2026-04-30 22:27 42.09832 -75.99296 37886 ft 457 kts 295°
2026-04-30 22:27 42.14271 -76.10617 37888 ft 452 kts 287°
2026-04-30 22:28 42.16498 -76.22820 37906 ft 445 kts 274°
2026-04-30 22:29 42.17703 -76.39425 37909 ft 445 kts 273°
2026-04-30 22:31 42.19859 -76.68484 37927 ft 444 kts 273°
2026-04-30 22:32 42.21360 -76.89146 37949 ft 444 kts 273°
2026-04-30 22:33 42.22825 -77.09832 37947 ft 442 kts 273°
2026-04-30 22:35 42.24248 -77.30460 37952 ft 441 kts 273°
2026-04-30 22:36 42.25665 -77.51054 37977 ft 441 kts 275°
2026-04-30 22:37 42.28422 -77.67254 37986 ft 443 kts 281°
2026-04-30 22:38 42.31353 -77.83407 37993 ft 443 kts 281°
2026-04-30 22:39 42.33515 -77.95535 37982 ft 443 kts 281°
2026-04-30 22:40 42.37816 -78.19883 37957 ft 445 kts 280°
2026-04-30 22:41 42.41369 -78.40250 37955 ft 445 kts 280°
2026-04-30 22:43 42.45589 -78.64730 37996 ft 445 kts 280°
2026-04-30 22:44 42.47506 -78.81226 38013 ft 443 kts 270°
2026-04-30 22:45 42.48081 -79.06101 38002 ft 439 kts 271°
2026-04-30 22:46 42.48331 -79.14121 37623 ft 413 kts 271°
2026-04-30 22:47 42.48793 -79.29341 36621 ft 399 kts 271°
2026-04-30 22:47 42.49010 -79.36853 35890 ft 399 kts 271°
2026-04-30 22:48 42.49223 -79.44376 35219 ft 399 kts 271°
2026-04-30 22:49 42.49533 -79.55620 34199 ft 398 kts 271°
2026-04-30 22:49 42.49832 -79.66848 32502 ft 396 kts 271°
2026-04-30 22:50 42.50213 -79.81837 30443 ft 403 kts 271°
2026-04-30 22:51 42.50397 -79.89342 30081 ft 399 kts 271°
2026-04-30 22:52 42.50664 -80.00634 30015 ft 403 kts 271°
2026-04-30 22:53 42.51006 -80.15822 30004 ft 403 kts 271°
2026-04-30 22:53 42.51248 -80.27192 30006 ft 402 kts 271°
2026-04-30 22:55 42.51626 -80.46055 30015 ft 400 kts 271°
2026-04-30 22:56 42.51907 -80.61108 30019 ft 399 kts 271°
2026-04-30 22:57 42.52109 -80.79722 29479 ft 386 kts 271°
2026-04-30 22:57 42.52174 -80.86930 28349 ft 379 kts 271°
2026-04-30 22:58 42.52236 -80.93997 27285 ft 371 kts 271°
2026-04-30 22:59 42.52320 -81.04310 25749 ft 362 kts 271°
2026-04-30 22:59 42.52393 -81.14426 24298 ft 354 kts 271°